Wind_Speed
10 13 14 16 16 16 21 22 22 22 24 21 20 22 23 23 24 26 27 26 28 28 28 31 31 31 32 33 36 38 37 38 38 40 45 49 56 60 61 61 61 60 57 57 58 63 66 64 65
8 9 12 11 14 15 15 18 21 23 23 22 20 20 20 22 23 26 28 29 32 31 31 32 33 34 36 35 37 38 40 40 40 41 41 43 49 57 62 64 64 64 62 60 61 61 63 65 67
11 11 11 9 12 13 16 19 20 22 25 26 27 25 24 24 23 25 26 29 31 32 35 37 38 37 38 39 40 42 43 46 46 47 47 44 44 49 57 64 66 66 67 67 66 65 62 61 62
13 13 13 14 17 16 18 20 22 24 26 28 29 29 29 25 26 26 27 30 32 38 37 39 41 43 43 44 45 48 48 50 51 52 52 53 46 45 51 57 64 69 69 69 69 69 67 64 63
16 15 14 16 15 16 19 21 24 26 27 27 28 32 32 34 31 31 31 32 34 38 38 40 44 45 47 49 50 51 53 52 54 56 59 59 52 46 46 51 58 63 70 69 72 72 70 68 67
15 16 16 16 17 18 18 23 27 31 30 31 31 32 34 40 39 38 34 36 36 41 42 45 46 48 51 52 53 55 56 56 58 58 60 61 59 49 47 49 51 55 60 68 73 73 73 74 72
18 18 18 16 16 19 20 25 28 30 32 30 34 34 36 39 42 41 38 40 41 41 44 46 47 50 52 54 56 57 61 62 63 63 63 64 62 52 47 46 49 51 54 58 62 70 75 76 75
20 20 20 20 22 21 21 23 28 30 30 29 32 35 38 40 44 44 42 43 44 44 44 48 49 52 55 57 60 65 69 68 64 65 65 67 63 50 45 45 47 49 51 53 56 58 63 70 77
27 28 28 25 24 24 24 26 28 26 32 35 33 34 36 39 42 44 46 48 48 48 47 49 51 53 57 61 63 66 71 70 65 66 68 69 65 53 45 43 45 48 50 52 53 55 58 61 65
28 30 29 27 27 27 27 28 30 32 33 35 37 37 38 40 44 45 46 49 52 52 48 48 51 53 58 60 63 66 70 68 66 69 70 72 63 53 46 43 45 48 50 52 54 55 56 59 61
32 32 30 27 29 32 30 29 32 33 36 35 37 38 40 42 45 47 49 53 53 54 51 50 51 53 57 60 64 66 70 67 67 70 71 70 59 50 47 46 47 50 52 54 56 57 56 58 59
36 35 30 28 30 31 31 32 34 34 39 37 36 37 40 43 47 47 51 53 55 55 54 51 52 55 58 62 65 67 69 69 70 72 74 69 58 50 46 46 48 49 51 54 57 58 58 58 58
38 37 32 30 31 34 33 33 37 39 41 42 39 40 43 45 48 51 51 54 57 59 54 53 54 56 59 62 65 68 69 70 72 75 75 66 55 50 48 47 48 50 51 54 57 59 59 59 60
45 43 40 36 33 36 35 38 38 41 44 45 44 45 46 48 51 55 53 54 58 59 54 54 55 58 61 63 66 68 70 74 74 78 74 62 54 50 49 50 51 51 53 54 56 58 59 60 62
45 46 43 42 41 41 40 42 41 41 47 45 46 48 48 52 54 60 54 55 60 58 55 54 56 59 62 64 67 71 73 77 77 80 70 61 56 54 54 56 57 58 58 60 61 61 61 60 61
44 48 46 46 44 45 45 49 44 43 48 49 50 52 53 54 57 60 60 61 61 56 55 55 57 60 64 66 69 76 76 80 80 77 67 61 59 60 61 59 56 54 56 59 62 62 63 62 61
50 51 52 51 52 50 52 52 50 46 50 53 53 53 55 57 58 63 59 62 58 57 54 56 57 59 63 68 72 74 78 80 82 73 66 63 63 63 60 56 53 52 52 53 54 56 56 57 60
51 52 52 49 51 54 54 54 54 48 50 54 55 57 55 58 62 61 62 62 56 56 54 55 57 62 68 70 70 73 79 81 80 70 66 63 61 60 56 51 44 42 44 46 46 45 47 51 55
54 53 53 49 46 48 51 56 55 54 53 57 59 60 62 64 64 63 64 56 55 54 54 56 58 63 65 69 70 74 80 82 78 70 66 62 58 54 48 41 39 36 37 36 36 36 37 41 47
60 58 57 57 54 51 51 53 50 51 51 54 60 62 63 66 65 64 60 56 54 52 54 57 59 61 64 69 71 76 80 81 74 67 63 59 53 48 43 35 31 28 26 25 24 25 29 33 38
71 68 66 63 58 54 55 57 56 56 56 54 57 61 65 66 66 60 59 55 50 51 52 56 56 61 64 69 74 78 81 81 73 65 60 55 50 41 33 30 25 16 8 6 10 16 20 24 27
77 76 70 65 62 61 64 61 65 63 62 62 61 63 64 64 64 61 56 50 47 48 51 54 57 58 63 70 77 79 80 80 70 64 55 47 42 35 30 22 13 5 2 1 5 10 14 18 20
77 80 79 71 68 66 67 65 69 68 68 64 62 61 62 64 63 60 50 52 44 45 51 56 54 61 67 74 72 78 79 76 67 59 49 48 42 32 21 14 10 11 11 9 6 8 14 15 16
81 78 75 73 71 71 73 70 71 71 70 67 65 64 65 64 63 60 46 46 41 43 47 53 58 61 64 70 72 76 78 68 66 57 48 40 26 19 19 19 21 23 21 19 12 12 15 16 17
85 84 82 75 77 73 71 70 71 74 75 70 65 69 64 61 61 53 43 37 37 39 45 49 55 58 62 67 69 73 76 65 63 57 47 34 24 22 27 31 33 32 23 16 13 13 12 14 15
88 84 84 79 75 73 74 72 73 77 74 70 70 65 58 55 55 44 39 35 34 37 42 47 52 55 61 63 64 69 74 68 62 55 42 30 25 30 34 37 34 32 29 24 20 17 15 16 24
91 86 85 82 80 77 74 73 76 77 74 71 66 58 56 50 46 42 38 37 34 36 41 46 50 53 57 58 61 64 71 71 62 56 41 27 31 33 36 40 39 33 28 30 29 32 34 43 51
95 93 90 86 82 78 75 72 74 75 73 70 62 60 53 47 43 43 42 37 36 34 38 43 47 49 53 54 58 59 65 68 56 54 49 31 37 40 41 41 40 36 39 44 45 46 42 41 49
95 91 89 87 82 75 70 71 74 74 69 65 64 57 49 47 45 44 41 39 38 36 36 41 45 47 48 51 56 54 59 64 50 46 41 29 31 39 39 37 40 35 35 42 42 46 48 43 42
92 89 87 86 82 79 76 70 70 64 65 62 60 59 55 51 48 47 42 46 40 33 37 40 43 47 43 49 54 49 56 58 49 41 37 28 28 31 37 34 30 32 26 31 34 31 31 39 41
Wind_Direction
17 21 38 32 31 32 33 32 34 29 24 13 359 352 348 343 348 343 346 348 349 341 339 338 333 324 325 320 317 316 312 309 310 310 299 289 276 268 262 260 262 262 262 259 256 254 251 252 253
6 16 33 22 22 18 8 18 13 21 29 18 10 356 348 339 330 332 331 332 336 332 329 326 326 320 317 321 326 321 328 323 321 318 315 300 283 271 264 261 259 259 260 260 259 256 253 252 250
353 351 349 6 10 12 12 6 5 14 11 18 16 8 2 350 327 321 322 329 329 332 332 322 318 319 321 325 323 328 327 327 326 326 325 317 296 278 267 260 258 257 257 257 257 257 256 253 252
326 347 353 1 355 1 5 4 5 4 2 6 6 7 8 5 347 334 323 320 326 334 326 327 328 323 321 323 324 323 328 327 329 329 329 326 311 290 276 266 259 254 255 256 255 255 256 257 252
308 331 339 348 359 352 353 357 354 356 359 5 5 2 359 1 4 355 340 332 322 328 331 330 328 330 326 324 323 323 323 325 326 327 327 327 319 301 283 271 263 258 253 253 254 254 255 256 254
297 311 321 331 354 353 351 352 353 352 356 360 359 358 354 356 357 357 351 345 335 336 330 329 327 327 327 327 325 321 323 323 325 326 326 325 322 306 291 277 267 261 257 254 252 254 254 254 253
284 294 305 322 338 340 343 346 346 347 346 354 355 353 353 353 352 353 351 350 344 334 331 326 327 329 328 325 325 324 325 323 324 325 324 325 322 309 295 281 271 264 260 257 256 253 252 253 254
280 290 298 311 316 327 334 338 341 342 344 350 351 350 350 351 347 349 350 345 348 342 329 329 328 327 324 323 324 322 322 323 322 323 321 322 319 307 295 282 273 269 264 260 257 256 255 253 253
278 284 288 295 305 320 324 327 334 333 334 339 344 348 346 344 345 343 345 346 346 342 336 331 324 323 323 322 322 320 320 322 321 320 320 319 315 305 293 282 275 269 265 263 259 257 256 256 255
290 285 283 287 295 306 316 320 324 330 326 331 335 339 341 342 340 340 340 342 342 342 334 330 327 322 320 321 320 320 321 321 321 321 319 319 315 304 292 282 275 269 264 260 258 256 256 256 255
287 286 285 284 293 296 301 315 320 325 321 325 329 334 335 337 337 338 338 338 340 340 335 328 324 322 320 320 318 320 319 322 321 320 318 317 312 301 292 282 275 271 266 261 257 255 255 256 256
284 279 281 284 286 296 302 313 313 319 318 320 328 330 332 334 335 336 333 335 337 338 336 328 323 321 320 318 319 319 320 321 320 319 318 316 308 299 290 283 277 271 266 262 259 257 255 254 255
278 278 279 288 294 293 302 310 318 314 316 319 324 325 329 331 332 334 333 332 334 337 336 329 324 319 319 319 319 320 320 320 321 320 321 315 307 301 294 285 278 273 267 262 257 254 250 248 250
271 278 279 285 289 293 297 303 312 311 311 318 320 320 324 325 329 333 332 331 334 339 333 329 323 319 318 318 320 321 321 323 322 322 322 314 308 303 298 291 284 277 270 263 258 255 253 250 249
275 274 272 278 285 292 293 295 307 311 309 313 316 319 321 322 325 327 329 331 336 337 332 324 321 319 318 318 321 322 324 324 324 323 320 314 310 304 299 292 285 279 274 267 261 255 250 246 246
275 273 272 274 280 285 292 294 303 309 309 314 314 315 319 322 325 325 328 330 334 334 331 322 320 317 317 321 322 323 325 326 325 325 320 316 312 307 301 296 290 283 274 265 260 256 251 247 244
274 275 274 277 279 284 287 290 301 305 306 312 313 316 316 319 323 324 326 330 333 332 326 320 317 316 319 321 323 325 327 327 327 325 321 316 314 308 304 299 292 284 277 270 265 260 254 249 246
277 276 275 278 281 281 287 288 295 298 301 305 311 312 314 317 320 324 325 329 330 330 321 318 316 317 318 320 324 327 330 330 329 324 320 319 314 308 304 301 296 285 276 270 267 258 250 245 242
269 270 277 279 282 289 290 288 295 294 297 300 305 308 311 313 317 323 325 326 330 328 319 316 316 317 318 322 326 330 333 332 329 324 324 319 317 312 308 302 296 284 276 269 259 250 244 242 239
273 274 273 277 279 282 289 293 296 298 299 300 302 305 307 310 316 322 323 325 329 325 319 316 317 319 320 323 329 331 335 333 331 326 328 328 321 316 310 309 305 291 281 270 253 239 235 233 233
273 275 279 277 279 281 287 290 292 292 298 301 303 305 306 309 314 320 322 325 325 325 318 315 317 319 322 327 331 331 335 335 333 333 336 332 326 321 322 325 317 304 297 260 225 216 215 220 226
270 272 275 277 278 283 283 285 289 291 294 296 299 302 309 311 314 318 322 327 325 324 317 313 315 321 326 328 330 332 339 337 337 341 339 341 343 339 336 334 333 347 358 205 198 193 193 197 203
268 270 273 275 276 280 283 285 287 289 295 297 299 303 308 309 314 315 319 323 323 322 317 315 314 316 320 324 331 333 342 342 343 345 347 351 347 342 350 7 31 52 71 71 94 141 154 165 162
268 270 272 274 276 279 282 284 286 289 294 298 299 303 307 308 310 312 318 324 323 320 319 317 315 318 322 326 331 336 343 348 351 352 356 352 355 8 41 53 62 67 65 65 79 111 128 148 163
266 269 272 273 273 277 279 284 283 287 293 296 298 301 302 305 309 311 319 325 324 318 318 317 317 321 323 327 332 339 345 352 356 2 0 2 23 49 68 68 66 64 63 68 77 104 126 139 146
267 270 272 273 274 276 279 280 282 287 291 295 296 298 300 303 307 313 320 326 321 317 317 316 318 321 325 329 336 342 348 355 358 8 0 11 40 63 65 67 67 66 66 69 80 106 114 134 146
269 271 272 273 274 276 279 280 281 286 289 292 293 294 298 300 306 314 321 324 318 311 314 316 317 321 325 330 338 343 350 354 359 7 7 22 49 65 72 74 73 76 89 95 103 110 121 131 137
267 268 271 273 274 277 278 278 279 283 287 289 289 293 296 300 307 310 315 315 317 310 311 314 314 320 325 329 337 344 350 356 358 7 6 32 55 65 71 79 84 93 102 105 107 106 110 120 138
266 268 269 271 273 273 272 275 279 282 283 282 288 291 297 300 303 304 311 310 315 301 310 314 309 314 323 328 334 342 348 356 0 4 13 33 62 70 72 82 87 91 111 117 113 111 111 110 125
267 269 269 271 272 271 276 278 277 275 276 282 287 292 292 295 299 302 304 312 303 300 306 307 304 306 316 321 328 340 343 357 360 2 13 23 62 71 78 78 86 74 113 128 126 131 137 139 140
Height
10842 10840 10837 10836 10835 10832 10830 10828 10825 10824 10821 10819 10817 10814 10812 10809 10807 10805 10802 10799 10796 10792 10788 10784 10780 10776 10772 10768 10765 10762 10756 10751 10745 10740 10734 10729 10727 10727 10728 10730 10730 10731 10733 10735 10736 10738 10744 10748 10751
10841 10839 10837 10836 10834 10832 10830 10828 10825 10822 10820 10818 10815 10813 10810 10807 10805 10802 10799 10796 10793 10789 10785 10782 10777 10772 10768 10764 10760 10754 10749 10743 10737 10731 10725 10718 10714 10711 10712 10715 10717 10718 10719 10721 10722 10725 10729 10733 10738
10840 10838 10837 10834 10833 10831 10829 10827 10824 10821 10819 10817 10814 10811 10808 10805 10803 10799 10796 10792 10788 10785 10782 10778 10773 10768 10763 10757 10751 10745 10739 10732 10726 10720 10715 10709 10703 10699 10697 10699 10701 10703 10706 10707 10709 10711 10715 10720 10722
10838 10836 10835 10833 10832 10830 10828 10826 10824 10820 10817 10815 10812 10808 10806 10804 10800 10796 10793 10789 10785 10781 10777 10772 10767 10761 10756 10750 10743 10736 10729 10723 10717 10710 10704 10698 10693 10688 10684 10683 10685 10687 10689 10691 10694 10696 10700 10704 10708
10836 10834 10833 10831 10829 10827 10825 10823 10821 10819 10815 10812 10809 10806 10803 10800 10797 10793 10789 10786 10782 10776 10771 10766 10760 10754 10748 10741 10735 10729 10723 10716 10709 10701 10694 10687 10681 10676 10672 10669 10669 10670 10672 10676 10678 10681 10685 10688 10692
10833 10832 10830 10829 10826 10824 10822 10821 10818 10815 10813 10809 10806 10802 10798 10795 10792 10788 10784 10780 10775 10769 10764 10759 10753 10747 10740 10733 10727 10721 10715 10708 10700 10693 10685 10677 10670 10664 10660 10656 10655 10655 10656 10659 10662 10665 10669 10671 10674
10829 10828 10826 10825 10823 10821 10819 10817 10815 10812 10809 10807 10803 10799 10795 10791 10787 10783 10778 10773 10768 10762 10757 10752 10746 10739 10732 10725 10719 10712 10705 10698 10690 10681 10674 10667 10659 10651 10647 10643 10642 10641 10641 10642 10644 10647 10650 10653 10656
10824 10824 10823 10821 10820 10817 10815 10812 10810 10807 10805 10803 10800 10795 10792 10787 10782 10778 10774 10767 10762 10757 10751 10745 10739 10732 10724 10718 10711 10703 10695 10688 10680 10672 10663 10656 10648 10640 10635 10631 10628 10627 10627 10627 10629 10630 10632 10636 10639
10820 10819 10818 10817 10815 10813 10811 10808 10806 10803 10799 10798 10795 10791 10786 10781 10777 10772 10767 10762 10756 10750 10744 10738 10731 10725 10717 10710 10702 10694 10686 10678 10669 10660 10651 10643 10635 10628 10621 10618 10615 10614 10613 10613 10614 10616 10618 10618 10621
10815 10814 10813 10812 10810 10808 10806 10804 10801 10799 10796 10793 10789 10785 10782 10777 10772 10766 10762 10757 10751 10744 10737 10731 10724 10717 10709 10701 10692 10685 10676 10668 10658 10648 10638 10630 10621 10614 10608 10604 10601 10599 10598 10598 10599 10601 10603 10603 10606
10809 10809 10808 10807 10805 10803 10801 10799 10797 10794 10790 10788 10784 10780 10776 10771 10766 10761 10755 10750 10744 10737 10730 10723 10716 10709 10701 10693 10684 10676 10667 10658 10647 10638 10628 10617 10608 10601 10594 10589 10586 10584 10583 10582 10582 10583 10586 10588 10590
10803 10802 10801 10801 10799 10797 10795 10793 10792 10789 10783 10780 10778 10775 10771 10766 10761 10755 10750 10744 10738 10732 10724 10716 10709 10701 10693 10685 10676 10666 10656 10645 10636 10625 10614 10602 10593 10586 10580 10575 10571 10569 10568 10567 10566 10568 10572 10573 10575
10796 10796 10794 10794 10793 10790 10789 10787 10784 10783 10779 10775 10772 10768 10764 10760 10755 10749 10744 10737 10731 10725 10717 10709 10701 10693 10684 10675 10665 10655 10645 10634 10623 10610 10598 10585 10577 10570 10565 10560 10556 10552 10551 10550 10550 10551 10554 10557 10559
10789 10789 10788 10787 10787 10784 10782 10780 10779 10775 10772 10769 10766 10761 10757 10753 10749 10743 10737 10731 10724 10717 10709 10700 10692 10683 10674 10664 10654 10644 10634 10621 10608 10595 10582 10571 10562 10554 10548 10543 10540 10537 10534 10532 10531 10533 10537 10542 10545
10782 10781 10780 10779 10781 10778 10774 10771 10775 10770 10764 10762 10759 10755 10750 10746 10742 10737 10730 10724 10717 10710 10701 10692 10683 10674 10665 10655 10645 10634 10622 10607 10593 10580 10567 10555 10546 10538 10531 10525 10519 10516 10514 10512 10511 10513 10517 10521 10528
10775 10772 10771 10773 10773 10772 10769 10761 10767 10765 10757 10756 10751 10748 10743 10738 10734 10729 10723 10716 10709 10701 10692 10683 10675 10666 10656 10646 10635 10623 10610 10595 10579 10565 10551 10538 10528 10519 10510 10503 10497 10493 10490 10488 10488 10492 10495 10503 10510
10764 10765 10764 10765 10765 10765 10762 10753 10757 10758 10751 10748 10745 10742 10736 10731 10726 10721 10715 10708 10700 10692 10683 10675 10667 10657 10647 10637 10626 10613 10599 10584 10566 10549 10534 10522 10512 10501 10490 10482 10476 10472 10467 10466 10467 10473 10477 10484 10491
10754 10754 10754 10753 10757 10756 10754 10745 10747 10750 10745 10740 10737 10735 10730 10725 10719 10713 10707 10699 10692 10685 10676 10668 10659 10649 10640 10629 10618 10604 10589 10571 10553 10536 10521 10508 10494 10480 10471 10462 10457 10451 10448 10447 10450 10455 10459 10466 10474
10744 10745 10745 10745 10748 10747 10745 10738 10738 10738 10738 10733 10730 10726 10722 10717 10711 10706 10700 10692 10684 10677 10670 10661 10652 10642 10632 10622 10611 10596 10579 10560 10541 10523 10506 10490 10476 10463 10454 10446 10440 10434 10431 10432 10435 10440 10445 10452 10459
10734 10736 10734 10736 10738 10739 10735 10729 10729 10728 10725 10724 10721 10718 10714 10709 10703 10698 10692 10684 10676 10668 10662 10654 10645 10636 10626 10615 10603 10587 10570 10550 10529 10510 10493 10477 10461 10450 10442 10435 10427 10422 10421 10422 10424 10428 10434 10440 10447
10721 10723 10724 10726 10728 10729 10726 10720 10716 10718 10717 10714 10712 10709 10705 10700 10695 10690 10683 10676 10668 10661 10654 10648 10639 10629 10620 10607 10595 10580 10562 10540 10519 10501 10484 10466 10451 10441 10432 10424 10419 10417 10416 10415 10417 10422 10428 10435 10441
10708 10709 10713 10715 10717 10718 10715 10715 10703 10705 10707 10704 10703 10700 10696 10691 10686 10682 10675 10668 10661 10655 10648 10641 10633 10623 10612 10600 10590 10573 10555 10533 10511 10493 10474 10459 10445 10434 10426 10420 10417 10414 10414 10415 10418 10422 10426 10431 10436
10694 10695 10699 10703 10705 10707 10703 10705 10690 10692 10694 10693 10691 10690 10687 10683 10679 10672 10667 10660 10652 10648 10642 10635 10627 10617 10607 10595 10585 10567 10549 10530 10505 10487 10470 10456 10444 10434 10426 10421 10416 10416 10416 10418 10420 10423 10428 10433 10438
10678 10680 10684 10689 10692 10696 10688 10691 10683 10681 10680 10680 10681 10679 10676 10674 10670 10664 10658 10652 10647 10642 10635 10629 10623 10612 10602 10591 10581 10562 10545 10528 10505 10485 10469 10458 10449 10439 10431 10426 10422 10420 10421 10424 10427 10430 10433 10439 10444
10659 10664 10669 10676 10678 10681 10678 10679 10673 10669 10666 10669 10670 10667 10665 10663 10661 10656 10650 10643 10640 10635 10630 10623 10617 10609 10598 10587 10577 10561 10544 10528 10508 10490 10474 10464 10453 10443 10436 10432 10429 10429 10429 10432 10435 10437 10442 10447 10450
10641 10647 10651 10658 10663 10666 10667 10667 10661 10654 10655 10657 10658 10656 10655 10653 10651 10646 10641 10636 10632 10630 10624 10619 10612 10606 10596 10586 10575 10560 10546 10529 10512 10499 10485 10471 10460 10450 10445 10440 10437 10438 10438 10441 10445 10448 10451 10455 10459
10627 10630 10630 10639 10647 10651 10653 10653 10648 10641 10643 10644 10646 10646 10645 10644 10640 10637 10633 10630 10626 10623 10618 10614 10608 10603 10594 10584 10575 10562 10548 10530 10515 10503 10492 10479 10468 10460 10454 10452 10451 10451 10453 10453 10456 10459 10461 10466 10473
10606 10610 10613 10620 10630 10636 10641 10639 10634 10629 10628 10630 10631 10633 10633 10632 10630 10627 10624 10624 10620 10616 10613 10609 10604 10600 10593 10583 10577 10564 10551 10538 10522 10511 10499 10488 10478 10472 10468 10466 10466 10466 10466 10467 10468 10471 10474 10478 10484
10587 10592 10594 10600 10612 10618 10623 10625 10621 10619 10611 10614 10615 10618 10620 10622 10621 10617 10616 10616 10614 10611 10608 10604 10600 10596 10591 10583 10577 10565 10555 10542 10532 10519 10510 10499 10491 10485 10482 10480 10479 10481 10481 10480 10483 10485 10486 10491 10497
10568 10572 10574 10579 10590 10599 10608 10611 10605 10603 10598 10596 10599 10603 10606 10609 10611 10609 10608 10608 10607 10604 10602 10598 10594 10591 10588 10581 10576 10567 10556 10548 10536 10525 10519 10509 10501 10496 10493 10492 10491 10491 10491 10492 10493 10495 10496 10501 10504